[Date Prev][Date Next][Thread Prev][Thread Next] - [Date Index][Thread Index][Author Index]

2 Line ISS Keps 11-18



ISS 
1 25544U 98067A   04323.17206019  .00086422  00000-0  69424-3 0  1675
2 25544  51.6396 259.9303 0004529  17.1335 187.7413 15.70230004342500
----
Via the sarex mailing list at AMSAT.ORG courtesy of AMSAT-NA.
To unsubscribe, send "unsubscribe sarex" to Majordomo@amsat.org



AMSAT Top AMSAT Home